contact:dominique.lefevre@mio.osupytheas.fr, maurice.libes@osupytheas.fr, didier.mallarino@osupytheas.fr
Project:EMSO http://www.emso-fr.org/EMSO-France
Depth: 2436.0 m
Title:EMSO Ligure Ouest : Data MII capteur MICROCAT
DateTime_Computer,Latitude,Longitude,Temperature,Conductivity,Pressure,DateTime_Instrument
DateTime_Computer,Latitude,Longitude,degC,S m-1,dbar,DateTime_Instrument
2021-08-07T00:00:45Z,42.805,6.029,13.2988,4.59996,2470.39,2021-8-07T02:02:03Z
2021-08-07T00:03:48Z,42.805,6.029,13.2986,4.59997,2470.366,2021-8-07T02:05:06Z
2021-08-07T00:06:51Z,42.805,6.029,13.2990,4.59996,2470.357,2021-8-07T02:08:09Z
2021-08-07T00:09:54Z,42.805,6.029,13.2988,4.59996,2470.38,2021-8-07T02:11:12Z
2021-08-07T00:12:57Z,42.805,6.029,13.2991,4.59997,2470.343,2021-8-07T02:14:15Z
2021-08-07T00:16:01Z,42.805,6.029,13.2987,4.59996,2470.357,2021-8-07T02:17:18Z
2021-08-07T00:19:04Z,42.805,6.029,13.2986,4.59996,2470.38,2021-8-07T02:20:21Z
2021-08-07T00:22:07Z,42.805,6.029,13.2989,4.59996,2470.366,2021-8-07T02:23:25Z
2021-08-07T00:25:10Z,42.805,6.029,13.2984,4.59996,2470.39,2021-8-07T02:26:28Z
2021-08-07T00:28:13Z,42.805,6.029,13.2984,4.59996,2470.394,2021-8-07T02:29:31Z
2021-08-07T00:31:16Z,42.805,6.029,13.2986,4.59995,2470.366,2021-8-07T02:32:34Z
2021-08-07T00:34:19Z,42.805,6.029,13.2986,4.59996,2470.366,2021-8-07T02:35:37Z
2021-08-07T00:37:22Z,42.805,6.029,13.2988,4.59996,2470.357,2021-8-07T02:38:40Z
2021-08-07T00:40:25Z,42.805,6.029,13.2987,4.59996,2470.343,2021-8-07T02:41:43Z
2021-08-07T00:43:29Z,42.805,6.029,13.2986,4.59996,2470.39,2021-8-07T02:44:46Z
2021-08-07T00:46:32Z,42.805,6.029,13.2984,4.59997,2470.366,2021-8-07T02:47:50Z
2021-08-07T00:49:35Z,42.805,6.029,13.2987,4.59998,2470.357,2021-8-07T02:50:53Z
2021-08-07T00:52:38Z,42.805,6.029,13.2991,4.59996,2470.366,2021-8-07T02:53:56Z
2021-08-07T00:55:41Z,42.805,6.029,13.2990,4.59996,2470.357,2021-8-07T02:56:59Z
2021-08-07T00:58:44Z,42.805,6.029,13.2987,4.59996,2470.366,2021-8-07T03:00:02Z
2021-08-07T01:01:47Z,42.805,6.029,13.2989,4.59999,2470.357,2021-8-07T03:03:05Z
2021-08-07T01:04:50Z,42.805,6.029,13.2988,4.59998,2470.343,2021-8-07T03:06:08Z
2021-08-07T01:07:54Z,42.805,6.029,13.2985,4.59996,2470.343,2021-8-07T03:09:11Z
2021-08-07T01:10:57Z,42.805,6.029,13.2991,4.59999,2470.366,2021-8-07T03:12:14Z
2021-08-07T01:14:00Z,42.805,6.029,13.2986,4.59999,2470.343,2021-8-07T03:15:18Z
2021-08-07T01:17:03Z,42.805,6.029,13.2983,4.59999,2470.38,2021-8-07T03:18:21Z
2021-08-07T01:20:06Z,42.805,6.029,13.2987,4.59997,2470.343,2021-8-07T03:21:24Z
2021-08-07T01:23:09Z,42.805,6.029,13.2986,4.59996,2470.38,2021-8-07T03:24:27Z
2021-08-07T01:26:12Z,42.805,6.029,13.2988,4.59996,2470.32,2021-8-07T03:27:30Z
2021-08-07T01:29:15Z,42.805,6.029,13.2986,4.59997,2470.357,2021-8-07T03:30:33Z
2021-08-07T01:32:18Z,42.805,6.029,13.2987,4.59996,2470.343,2021-8-07T03:33:36Z
2021-08-07T01:35:22Z,42.805,6.029,13.2990,4.59999,2470.343,2021-8-07T03:36:39Z
2021-08-07T01:38:25Z,42.805,6.029,13.2991,4.59995,2470.32,2021-8-07T03:39:43Z
2021-08-07T01:41:28Z,42.805,6.029,13.2983,4.59996,2470.366,2021-8-07T03:42:46Z
2021-08-07T01:44:31Z,42.805,6.029,13.2988,4.59995,2470.366,2021-8-07T03:45:49Z
2021-08-07T01:47:34Z,42.805,6.029,13.2986,4.59998,2470.357,2021-8-07T03:48:52Z
2021-08-07T01:50:37Z,42.805,6.029,13.2991,4.59996,2470.366,2021-8-07T03:51:55Z
2021-08-07T01:53:40Z,42.805,6.029,13.2989,4.59999,2470.38,2021-8-07T03:54:58Z
2021-08-07T01:56:43Z,42.805,6.029,13.2989,4.59997,2470.343,2021-8-07T03:58:01Z
2021-08-07T01:59:47Z,42.805,6.029,13.2987,4.59996,2470.343,2021-8-07T04:01:04Z
2021-08-07T02:02:50Z,42.805,6.029,13.2986,4.59996,2470.366,2021-8-07T04:04:07Z
2021-08-07T02:05:53Z,42.805,6.029,13.2989,4.59996,2470.357,2021-8-07T04:07:11Z
2021-08-07T02:08:56Z,42.805,6.029,13.2990,4.59996,2470.357,2021-8-07T04:10:14Z
2021-08-07T02:11:59Z,42.805,6.029,13.2987,4.59997,2470.334,2021-8-07T04:13:17Z
2021-08-07T02:15:02Z,42.805,6.029,13.2990,4.59996,2470.366,2021-8-07T04:16:20Z
2021-08-07T02:18:05Z,42.805,6.029,13.2989,4.59996,2470.334,2021-8-07T04:19:23Z
2021-08-07T02:21:08Z,42.805,6.029,13.2990,4.59996,2470.357,2021-8-07T04:22:26Z
2021-08-07T02:24:11Z,42.805,6.029,13.2988,4.59999,2470.357,2021-8-07T04:25:29Z
2021-08-07T02:27:15Z,42.805,6.029,13.2986,4.59996,2470.343,2021-8-07T04:28:32Z
2021-08-07T02:30:18Z,42.805,6.029,13.2989,4.59998,2470.357,2021-8-07T04:31:36Z
2021-08-07T02:33:21Z,42.805,6.029,13.2990,4.59996,2470.343,2021-8-07T04:34:39Z
2021-08-07T02:36:24Z,42.805,6.029,13.2985,4.59996,2470.366,2021-8-07T04:37:42Z
2021-08-07T02:39:27Z,42.805,6.029,13.2986,4.59997,2470.366,2021-8-07T04:40:45Z
2021-08-07T02:42:30Z,42.805,6.029,13.2991,4.59996,2470.353,2021-8-07T04:43:48Z
2021-08-07T02:45:33Z,42.805,6.029,13.2990,4.59995,2470.366,2021-8-07T04:46:51Z
2021-08-07T02:48:36Z,42.805,6.029,13.2989,4.59997,2470.343,2021-8-07T04:49:54Z
2021-08-07T02:51:40Z,42.805,6.029,13.2988,4.59996,2470.38,2021-8-07T04:52:57Z
2021-08-07T02:54:43Z,42.805,6.029,13.2989,4.59998,2470.38,2021-8-07T04:56:01Z
2021-08-07T02:57:46Z,42.805,6.029,13.2987,4.59996,2470.343,2021-8-07T04:59:04Z
2021-08-07T03:00:49Z,42.805,6.029,13.2987,4.59997,2470.366,2021-8-07T05:02:07Z
2021-08-07T03:03:52Z,42.805,6.029,13.2984,4.59996,2470.366,2021-8-07T05:05:10Z
2021-08-07T03:06:55Z,42.805,6.029,13.2991,4.59996,2470.38,2021-8-07T05:08:13Z
2021-08-07T03:09:58Z,42.805,6.029,13.2986,4.59996,2470.39,2021-8-07T05:11:16Z
2021-08-07T03:13:01Z,42.805,6.029,13.2984,4.59999,2470.38,2021-8-07T05:14:19Z
2021-08-07T03:16:04Z,42.805,6.029,13.2990,4.59999,2470.343,2021-8-07T05:17:22Z
2021-08-07T03:19:08Z,42.805,6.029,13.2994,4.59996,2470.366,2021-8-07T05:20:25Z
2021-08-07T03:22:11Z,42.805,6.029,13.2983,4.59997,2470.366,2021-8-07T05:23:29Z
2021-08-07T03:25:14Z,42.805,6.029,13.2987,4.59997,2470.38,2021-8-07T05:26:32Z
2021-08-07T03:28:17Z,42.805,6.029,13.2986,4.59996,2470.38,2021-8-07T05:29:35Z
2021-08-07T03:31:20Z,42.805,6.029,13.2987,4.60001,2470.404,2021-8-07T05:32:38Z
2021-08-07T03:34:23Z,42.805,6.029,13.2986,4.59998,2470.39,2021-8-07T05:35:41Z
2021-08-07T03:37:26Z,42.805,6.029,13.2987,4.59999,2470.38,2021-8-07T05:38:44Z
2021-08-07T03:40:29Z,42.805,6.029,13.2991,4.59997,2470.427,2021-8-07T05:41:47Z
2021-08-07T03:43:33Z,42.805,6.029,13.2985,4.59999,2470.413,2021-8-07T05:44:50Z
2021-08-07T03:46:36Z,42.805,6.029,13.2990,4.59998,2470.427,2021-8-07T05:47:54Z
2021-08-07T03:49:39Z,42.805,6.029,13.2989,4.59998,2470.404,2021-8-07T05:50:57Z
2021-08-07T03:52:42Z,42.805,6.029,13.2987,4.60000,2470.413,2021-8-07T05:54:00Z
2021-08-07T03:55:45Z,42.805,6.029,13.2990,4.59996,2470.39,2021-8-07T05:57:03Z
2021-08-07T03:58:48Z,42.805,6.029,13.2989,4.59999,2470.413,2021-8-07T06:00:06Z
2021-08-07T04:01:51Z,42.805,6.029,13.2991,4.59996,2470.39,2021-8-07T06:03:09Z
2021-08-07T04:04:54Z,42.805,6.029,13.2990,4.60001,2470.38,2021-8-07T06:06:12Z
2021-08-07T04:07:57Z,42.805,6.029,13.2988,4.59997,2470.404,2021-8-07T06:09:15Z
2021-08-07T04:11:01Z,42.805,6.029,13.2987,4.59998,2470.404,2021-8-07T06:12:18Z
2021-08-07T04:14:04Z,42.805,6.029,13.2988,4.59996,2470.404,2021-8-07T06:15:22Z
2021-08-07T04:17:07Z,42.805,6.029,13.2989,4.59996,2470.427,2021-8-07T06:18:25Z
2021-08-07T04:20:10Z,42.805,6.029,13.2990,4.59999,2470.427,2021-8-07T06:21:28Z
2021-08-07T04:23:13Z,42.805,6.029,13.2985,4.59999,2470.427,2021-8-07T06:24:31Z
2021-08-07T04:26:16Z,42.805,6.029,13.2990,4.59997,2470.413,2021-8-07T06:27:34Z
2021-08-07T04:29:19Z,42.805,6.029,13.2986,4.60002,2470.413,2021-8-07T06:30:37Z
2021-08-07T04:32:22Z,42.805,6.029,13.2990,4.60000,2470.413,2021-8-07T06:33:40Z
2021-08-07T04:35:26Z,42.805,6.029,13.2989,4.59999,2470.45,2021-8-07T06:36:43Z
2021-08-07T04:38:29Z,42.805,6.029,13.2990,4.59998,2470.427,2021-8-07T06:39:47Z
2021-08-07T04:41:32Z,42.805,6.029,13.2986,4.59997,2470.437,2021-8-07T06:42:50Z
2021-08-07T04:44:35Z,42.805,6.029,13.2986,4.59997,2470.45,2021-8-07T06:45:53Z
2021-08-07T04:47:38Z,42.805,6.029,13.2986,4.60000,2470.413,2021-8-07T06:48:56Z
2021-08-07T04:50:41Z,42.805,6.029,13.2989,4.59997,2470.437,2021-8-07T06:51:59Z
2021-08-07T04:53:44Z,42.805,6.029,13.2987,4.59997,2470.413,2021-8-07T06:55:02Z
2021-08-07T04:56:47Z,42.805,6.029,13.2987,4.59999,2470.45,2021-8-07T06:58:05Z
2021-08-07T04:59:51Z,42.805,6.029,13.2990,4.59997,2470.437,2021-8-07T07:01:08Z
2021-08-07T05:02:54Z,42.805,6.029,13.2989,4.59997,2470.437,2021-8-07T07:04:12Z
2021-08-07T05:05:57Z,42.805,6.029,13.2984,4.60001,2470.427,2021-8-07T07:07:15Z
2021-08-07T05:09:00Z,42.805,6.029,13.2985,4.59998,2470.437,2021-8-07T07:10:18Z
2021-08-07T05:12:03Z,42.805,6.029,13.2986,4.59997,2470.413,2021-8-07T07:13:21Z
2021-08-07T05:15:06Z,42.805,6.029,13.2986,4.59998,2470.427,2021-8-07T07:16:24Z
2021-08-07T05:18:09Z,42.805,6.029,13.2990,4.59999,2470.45,2021-8-07T07:19:27Z
2021-08-07T05:21:12Z,42.805,6.029,13.2991,4.60002,2470.437,2021-8-07T07:22:30Z
2021-08-07T05:24:15Z,42.805,6.029,13.2991,4.60000,2470.46,2021-8-07T07:25:33Z
2021-08-07T05:27:19Z,42.805,6.029,13.2990,4.59999,2470.437,2021-8-07T07:28:36Z
2021-08-07T05:30:22Z,42.805,6.029,13.2989,4.60000,2470.45,2021-8-07T07:31:40Z
2021-08-07T05:33:25Z,42.805,6.029,13.2986,4.59996,2470.413,2021-8-07T07:34:43Z
2021-08-07T05:36:28Z,42.805,6.029,13.2986,4.59999,2470.474,2021-8-07T07:37:46Z
2021-08-07T05:39:31Z,42.805,6.029,13.2990,4.59997,2470.437,2021-8-07T07:40:49Z
2021-08-07T05:42:34Z,42.805,6.029,13.2987,4.59996,2470.45,2021-8-07T07:43:52Z
2021-08-07T05:45:37Z,42.805,6.029,13.2991,4.59998,2470.45,2021-8-07T07:46:55Z
2021-08-07T05:48:40Z,42.805,6.029,13.2987,4.59997,2470.437,2021-8-07T07:49:58Z
2021-08-07T05:51:44Z,42.805,6.029,13.2987,4.59998,2470.437,2021-8-07T07:53:01Z
2021-08-07T05:54:47Z,42.805,6.029,13.2989,4.59997,2470.437,2021-8-07T07:56:05Z
2021-08-07T05:57:50Z,42.805,6.029,13.2992,4.59998,2470.45,2021-8-07T07:59:08Z
2021-08-07T06:00:53Z,42.805,6.029,13.2986,4.59999,2470.427,2021-8-07T08:02:11Z
2021-08-07T06:03:56Z,42.805,6.029,13.2986,4.59997,2470.45,2021-8-07T08:05:14Z
2021-08-07T06:06:59Z,42.805,6.029,13.2990,4.59997,2470.45,2021-8-07T08:08:17Z
2021-08-07T06:10:02Z,42.805,6.029,13.2991,4.59997,2470.45,2021-8-07T08:11:20Z
2021-08-07T06:13:05Z,42.805,6.029,13.2986,4.59999,2470.46,2021-8-07T08:14:23Z
2021-08-07T06:16:08Z,42.805,6.029,13.2988,4.59996,2470.46,2021-8-07T08:17:26Z
2021-08-07T06:19:12Z,42.805,6.029,13.2983,4.59996,2470.474,2021-8-07T08:20:29Z
2021-08-07T06:22:15Z,42.805,6.029,13.2996,4.59996,2470.45,2021-8-07T08:23:33Z
2021-08-07T06:25:18Z,42.805,6.029,13.2991,4.59998,2470.437,2021-8-07T08:26:36Z
2021-08-07T06:28:21Z,42.805,6.029,13.2986,4.59997,2470.437,2021-8-07T08:29:39Z
2021-08-07T06:31:24Z,42.805,6.029,13.2991,4.59996,2470.483,2021-8-07T08:32:42Z
2021-08-07T06:34:27Z,42.805,6.029,13.2984,4.59999,2470.483,2021-8-07T08:35:45Z
2021-08-07T06:37:30Z,42.805,6.029,13.2986,4.59999,2470.437,2021-8-07T08:38:48Z
2021-08-07T06:40:33Z,42.805,6.029,13.2983,4.59998,2470.497,2021-8-07T08:41:51Z
2021-08-07T06:43:37Z,42.805,6.029,13.2986,4.59996,2470.474,2021-8-07T08:44:54Z
2021-08-07T06:46:40Z,42.805,6.029,13.2988,4.59998,2470.46,2021-8-07T08:47:57Z
2021-08-07T06:49:43Z,42.805,6.029,13.2989,4.59998,2470.437,2021-8-07T08:51:01Z
2021-08-07T06:52:46Z,42.805,6.029,13.2986,4.59999,2470.483,2021-8-07T08:54:04Z
2021-08-07T06:55:49Z,42.805,6.029,13.2990,4.59997,2470.46,2021-8-07T08:57:07Z
2021-08-07T06:58:52Z,42.805,6.029,13.2987,4.59997,2470.483,2021-8-07T09:00:10Z
2021-08-07T07:01:55Z,42.805,6.029,13.2992,4.59996,2470.45,2021-8-07T09:03:13Z
2021-08-07T07:04:58Z,42.805,6.029,13.2987,4.59996,2470.413,2021-8-07T09:06:16Z
2021-08-07T07:08:01Z,42.805,6.029,13.2989,4.59997,2470.474,2021-8-07T09:09:19Z
2021-08-07T07:11:05Z,42.805,6.029,13.2991,4.60000,2470.437,2021-8-07T09:12:22Z
2021-08-07T07:14:08Z,42.805,6.029,13.2990,4.60000,2470.437,2021-8-07T09:15:26Z
2021-08-07T07:17:11Z,42.805,6.029,13.2989,4.59997,2470.45,2021-8-07T09:18:29Z
2021-08-07T07:20:14Z,42.805,6.029,13.2987,4.59998,2470.45,2021-8-07T09:21:32Z
2021-08-07T07:23:17Z,42.805,6.029,13.2988,4.59996,2470.437,2021-8-07T09:24:35Z
2021-08-07T07:26:20Z,42.805,6.029,13.2986,4.59996,2470.437,2021-8-07T09:27:38Z
2021-08-07T07:29:23Z,42.805,6.029,13.2987,4.59997,2470.45,2021-8-07T09:30:41Z
2021-08-07T07:32:26Z,42.805,6.029,13.2988,4.59997,2470.437,2021-8-07T09:33:44Z
2021-08-07T07:35:29Z,42.805,6.029,13.2988,4.59997,2470.427,2021-8-07T09:36:47Z
2021-08-07T07:38:33Z,42.805,6.029,13.2986,4.59996,2470.437,2021-8-07T09:39:50Z
2021-08-07T07:41:36Z,42.805,6.029,13.2991,4.59996,2470.45,2021-8-07T09:42:54Z
2021-08-07T07:44:39Z,42.805,6.029,13.2990,4.59997,2470.45,2021-8-07T09:45:57Z
2021-08-07T07:47:42Z,42.805,6.029,13.2989,4.59998,2470.413,2021-8-07T09:49:00Z
2021-08-07T07:50:45Z,42.805,6.029,13.2986,4.59996,2470.45,2021-8-07T09:52:03Z
2021-08-07T07:53:48Z,42.805,6.029,13.2987,4.59996,2470.437,2021-8-07T09:55:06Z
2021-08-07T07:56:51Z,42.805,6.029,13.2989,4.59998,2470.45,2021-8-07T09:58:09Z
2021-08-07T07:59:54Z,42.805,6.029,13.2990,4.59997,2470.46,2021-8-07T10:01:12Z
2021-08-07T08:02:58Z,42.805,6.029,13.2990,4.59997,2470.45,2021-8-07T10:04:15Z
2021-08-07T08:06:01Z,42.805,6.029,13.2987,4.59999,2470.46,2021-8-07T10:07:19Z
2021-08-07T08:09:04Z,42.805,6.029,13.2985,4.59996,2470.45,2021-8-07T10:10:22Z
2021-08-07T08:12:07Z,42.805,6.029,13.2987,4.59996,2470.413,2021-8-07T10:13:25Z
2021-08-07T08:15:10Z,42.805,6.029,13.2990,4.59995,2470.427,2021-8-07T10:16:28Z
2021-08-07T08:18:13Z,42.805,6.029,13.2989,4.59996,2470.39,2021-8-07T10:19:31Z
2021-08-07T08:21:16Z,42.805,6.029,13.2988,4.59999,2470.413,2021-8-07T10:22:34Z
2021-08-07T08:24:19Z,42.805,6.029,13.2986,4.59998,2470.413,2021-8-07T10:25:37Z
2021-08-07T08:27:23Z,42.805,6.029,13.2982,4.59997,2470.413,2021-8-07T10:28:40Z
2021-08-07T08:30:26Z,42.805,6.029,13.2989,4.59999,2470.399,2021-8-07T10:31:44Z
2021-08-07T08:33:29Z,42.805,6.029,13.2990,4.59996,2470.413,2021-8-07T10:34:47Z
2021-08-07T08:36:32Z,42.805,6.029,13.2989,4.59996,2470.413,2021-8-07T10:37:50Z
2021-08-07T08:39:35Z,42.805,6.029,13.2994,4.59997,2470.427,2021-8-07T10:40:53Z
2021-08-07T08:42:38Z,42.805,6.029,13.2988,4.59995,2470.39,2021-8-07T10:43:56Z
2021-08-07T08:45:41Z,42.805,6.029,13.2989,4.59996,2470.39,2021-8-07T10:46:59Z
2021-08-07T08:48:44Z,42.805,6.029,13.2985,4.59996,2470.376,2021-8-07T10:50:02Z
2021-08-07T08:51:48Z,42.805,6.029,13.2989,4.59996,2470.413,2021-8-07T10:53:05Z
2021-08-07T08:54:51Z,42.805,6.029,13.2986,4.59998,2470.39,2021-8-07T10:56:09Z
2021-08-07T08:57:54Z,42.805,6.029,13.2992,4.59996,2470.413,2021-8-07T10:59:12Z
2021-08-07T09:00:57Z,42.805,6.029,13.2988,4.59999,2470.39,2021-8-07T11:02:15Z
2021-08-07T09:04:00Z,42.805,6.029,13.2990,4.59996,2470.39,2021-8-07T11:05:18Z
2021-08-07T09:07:03Z,42.805,6.029,13.2989,4.59996,2470.39,2021-8-07T11:08:21Z
2021-08-07T09:10:06Z,42.805,6.029,13.2986,4.60000,2470.366,2021-8-07T11:11:24Z
2021-08-07T09:13:09Z,42.805,6.029,13.2990,4.59997,2470.38,2021-8-07T11:14:27Z
2021-08-07T09:16:13Z,42.805,6.029,13.2987,4.59997,2470.39,2021-8-07T11:17:30Z
2021-08-07T09:19:16Z,42.805,6.029,13.2988,4.59996,2470.413,2021-8-07T11:20:34Z
2021-08-07T09:22:19Z,42.805,6.029,13.2989,4.59996,2470.366,2021-8-07T11:23:37Z
2021-08-07T09:25:22Z,42.805,6.029,13.2985,4.59996,2470.38,2021-8-07T11:26:40Z
2021-08-07T09:28:25Z,42.805,6.029,13.2987,4.59996,2470.39,2021-8-07T11:29:43Z
2021-08-07T09:31:28Z,42.805,6.029,13.2987,4.59996,2470.39,2021-8-07T11:32:46Z
2021-08-07T09:34:31Z,42.805,6.029,13.2987,4.59996,2470.427,2021-8-07T11:35:49Z
2021-08-07T09:37:34Z,42.805,6.029,13.2986,4.59996,2470.366,2021-8-07T11:38:52Z
2021-08-07T09:40:38Z,42.805,6.029,13.2990,4.59996,2470.404,2021-8-07T11:41:55Z
2021-08-07T09:43:41Z,42.805,6.029,13.2990,4.59998,2470.427,2021-8-07T11:44:59Z
2021-08-07T09:46:44Z,42.805,6.029,13.2985,4.59996,2470.343,2021-8-07T11:48:02Z
2021-08-07T09:49:47Z,42.805,6.029,13.2986,4.59996,2470.404,2021-8-07T11:51:05Z
2021-08-07T09:52:50Z,42.805,6.029,13.2990,4.59996,2470.343,2021-8-07T11:54:08Z
2021-08-07T09:55:53Z,42.805,6.029,13.2987,4.59995,2470.366,2021-8-07T11:57:11Z
2021-08-07T09:58:56Z,42.805,6.029,13.2987,4.59996,2470.38,2021-8-07T12:00:14Z
2021-08-07T10:01:59Z,42.805,6.029,13.2987,4.59996,2470.32,2021-8-07T12:03:17Z
2021-08-07T10:05:03Z,42.805,6.029,13.2988,4.59996,2470.366,2021-8-07T12:06:20Z
2021-08-07T10:08:06Z,42.805,6.029,13.2990,4.59996,2470.343,2021-8-07T12:09:24Z
2021-08-07T10:11:09Z,42.805,6.029,13.2987,4.59997,2470.366,2021-8-07T12:12:27Z
2021-08-07T10:14:12Z,42.805,6.029,13.2984,4.59996,2470.38,2021-8-07T12:15:30Z
2021-08-07T10:17:15Z,42.805,6.029,13.2985,4.59996,2470.39,2021-8-07T12:18:33Z
2021-08-07T10:20:18Z,42.805,6.029,13.2987,4.59997,2470.39,2021-8-07T12:21:36Z
2021-08-07T10:23:21Z,42.805,6.029,13.2989,4.59997,2470.39,2021-8-07T12:24:39Z
2021-08-07T10:26:24Z,42.805,6.029,13.2990,4.59996,2470.357,2021-8-07T12:27:42Z
2021-08-07T10:29:28Z,42.805,6.029,13.2987,4.59996,2470.32,2021-8-07T12:30:45Z
2021-08-07T10:32:31Z,42.805,6.029,13.2987,4.59996,2470.38,2021-8-07T12:33:49Z
2021-08-07T10:35:34Z,42.805,6.029,13.2993,4.59995,2470.366,2021-8-07T12:36:52Z
2021-08-07T10:38:37Z,42.805,6.029,13.2989,4.59996,2470.343,2021-8-07T12:39:55Z
2021-08-07T10:41:40Z,42.805,6.029,13.2991,4.59995,2470.366,2021-8-07T12:42:58Z
2021-08-07T10:44:43Z,42.805,6.029,13.2986,4.59996,2470.343,2021-8-07T12:46:01Z
2021-08-07T10:47:46Z,42.805,6.029,13.2989,4.59996,2470.334,2021-8-07T12:49:04Z
2021-08-07T10:50:49Z,42.805,6.029,13.2985,4.59996,2470.343,2021-8-07T12:52:07Z
2021-08-07T10:53:53Z,42.805,6.029,13.2990,4.59996,2470.343,2021-8-07T12:55:10Z
2021-08-07T10:56:56Z,42.805,6.029,13.2989,4.59995,2470.357,2021-8-07T12:58:14Z
2021-08-07T10:59:59Z,42.805,6.029,13.2986,4.59996,2470.32,2021-8-07T13:01:17Z
2021-08-07T11:03:02Z,42.805,6.029,13.2986,4.59995,2470.357,2021-8-07T13:04:20Z
2021-08-07T11:06:05Z,42.805,6.029,13.2987,4.59995,2470.343,2021-8-07T13:07:23Z
2021-08-07T11:09:08Z,42.805,6.029,13.2985,4.59995,2470.343,2021-8-07T13:10:26Z
2021-08-07T11:12:11Z,42.805,6.029,13.2987,4.59995,2470.33,2021-8-07T13:13:29Z
2021-08-07T11:15:14Z,42.805,6.029,13.2989,4.59996,2470.32,2021-8-07T13:16:32Z
2021-08-07T11:18:18Z,42.805,6.029,13.2988,4.59995,2470.343,2021-8-07T13:19:35Z
2021-08-07T11:21:21Z,42.805,6.029,13.2991,4.59995,2470.297,2021-8-07T13:22:39Z
2021-08-07T11:24:24Z,42.805,6.029,13.2990,4.59995,2470.297,2021-8-07T13:25:42Z
2021-08-07T11:27:27Z,42.805,6.029,13.2984,4.59996,2470.32,2021-8-07T13:28:45Z
2021-08-07T11:30:30Z,42.805,6.029,13.2989,4.59995,2470.343,2021-8-07T13:31:48Z
2021-08-07T11:33:33Z,42.805,6.029,13.2987,4.59995,2470.287,2021-8-07T13:34:51Z
2021-08-07T11:36:36Z,42.805,6.029,13.2983,4.59996,2470.343,2021-8-07T13:37:54Z
2021-08-07T11:39:39Z,42.805,6.029,13.2988,4.59996,2470.32,2021-8-07T13:40:57Z
2021-08-07T11:42:43Z,42.805,6.029,13.2985,4.59996,2470.334,2021-8-07T13:44:00Z
2021-08-07T11:45:46Z,42.805,6.029,13.2990,4.59996,2470.297,2021-8-07T13:47:03Z
2021-08-07T11:48:49Z,42.805,6.029,13.2987,4.59995,2470.31,2021-8-07T13:50:07Z
2021-08-07T11:51:52Z,42.805,6.029,13.2986,4.59996,2470.32,2021-8-07T13:53:10Z
2021-08-07T11:54:55Z,42.805,6.029,13.2987,4.59995,2470.32,2021-8-07T13:56:13Z
2021-08-07T11:57:58Z,42.805,6.029,13.2986,4.59995,2470.297,2021-8-07T13:59:16Z
2021-08-07T12:01:01Z,42.805,6.029,13.2988,4.59999,2470.32,2021-8-07T14:02:19Z
2021-08-07T12:04:04Z,42.805,6.029,13.2990,4.59996,2470.334,2021-8-07T14:05:22Z
2021-08-07T12:07:07Z,42.805,6.029,13.2983,4.59995,2470.32,2021-8-07T14:08:25Z
2021-08-07T12:10:11Z,42.805,6.029,13.2990,4.59995,2470.297,2021-8-07T14:11:28Z
2021-08-07T12:13:14Z,42.805,6.029,13.2989,4.59996,2470.334,2021-8-07T14:14:32Z
2021-08-07T12:16:17Z,42.805,6.029,13.2990,4.59996,2470.343,2021-8-07T14:17:35Z
2021-08-07T12:19:20Z,42.805,6.029,13.2983,4.59996,2470.297,2021-8-07T14:20:38Z
2021-08-07T12:22:23Z,42.805,6.029,13.2987,4.59996,2470.273,2021-8-07T14:23:41Z
2021-08-07T12:25:26Z,42.805,6.029,13.2985,4.59995,2470.31,2021-8-07T14:26:44Z
2021-08-07T12:28:29Z,42.805,6.029,13.2986,4.59995,2470.297,2021-8-07T14:29:47Z
2021-08-07T12:31:32Z,42.805,6.029,13.2986,4.59995,2470.306,2021-8-07T14:32:50Z
2021-08-07T12:34:36Z,42.805,6.029,13.2984,4.59995,2470.32,2021-8-07T14:35:53Z
2021-08-07T12:37:39Z,42.805,6.029,13.2985,4.59995,2470.297,2021-8-07T14:38:57Z
2021-08-07T12:40:42Z,42.805,6.029,13.2987,4.59996,2470.297,2021-8-07T14:42:00Z
2021-08-07T12:43:45Z,42.805,6.029,13.2989,4.59995,2470.31,2021-8-07T14:45:03Z
2021-08-07T12:46:48Z,42.805,6.029,13.2990,4.59995,2470.297,2021-8-07T14:48:06Z
2021-08-07T12:49:51Z,42.805,6.029,13.2985,4.59995,2470.287,2021-8-07T14:51:09Z
2021-08-07T12:52:54Z,42.805,6.029,13.2989,4.59995,2470.31,2021-8-07T14:54:12Z
2021-08-07T12:55:57Z,42.805,6.029,13.2989,4.59996,2470.343,2021-8-07T14:57:15Z
2021-08-07T12:59:01Z,42.805,6.029,13.2986,4.59995,2470.32,2021-8-07T15:00:18Z
2021-08-07T13:02:04Z,42.805,6.029,13.2986,4.59995,2470.297,2021-8-07T15:03:22Z
2021-08-07T13:05:07Z,42.805,6.029,13.2986,4.59997,2470.32,2021-8-07T15:06:25Z
2021-08-07T13:08:10Z,42.805,6.029,13.2985,4.59995,2470.297,2021-8-07T15:09:28Z
2021-08-07T13:11:13Z,42.805,6.029,13.2986,4.59996,2470.343,2021-8-07T15:12:31Z
2021-08-07T13:14:16Z,42.805,6.029,13.2986,4.59997,2470.343,2021-8-07T15:15:34Z
2021-08-07T13:17:19Z,42.805,6.029,13.2985,4.59995,2470.32,2021-8-07T15:18:37Z
2021-08-07T13:20:22Z,42.805,6.029,13.2988,4.59996,2470.32,2021-8-07T15:21:40Z
2021-08-07T13:23:26Z,42.805,6.029,13.2985,4.59995,2470.334,2021-8-07T15:24:43Z
2021-08-07T13:26:29Z,42.805,6.029,13.2986,4.59996,2470.357,2021-8-07T15:27:46Z
2021-08-07T13:29:32Z,42.805,6.029,13.2986,4.59995,2470.343,2021-8-07T15:30:50Z
2021-08-07T13:32:35Z,42.805,6.029,13.2986,4.59995,2470.297,2021-8-07T15:33:53Z
2021-08-07T13:35:38Z,42.805,6.029,13.2990,4.59995,2470.334,2021-8-07T15:36:56Z
2021-08-07T13:38:41Z,42.805,6.029,13.2986,4.59995,2470.297,2021-8-07T15:39:59Z
2021-08-07T13:41:44Z,42.805,6.029,13.2990,4.59999,2470.297,2021-8-07T15:43:02Z
2021-08-07T13:44:47Z,42.805,6.029,13.2988,4.60003,2470.334,2021-8-07T15:46:05Z
2021-08-07T13:47:51Z,42.805,6.029,13.2987,4.59996,2470.32,2021-8-07T15:49:08Z
2021-08-07T13:50:54Z,42.805,6.029,13.2987,4.59996,2470.297,2021-8-07T15:52:11Z
2021-08-07T13:53:57Z,42.805,6.029,13.2987,4.59996,2470.297,2021-8-07T15:55:15Z
2021-08-07T13:57:00Z,42.805,6.029,13.2987,4.59995,2470.343,2021-8-07T15:58:18Z
2021-08-07T14:00:03Z,42.805,6.029,13.2990,4.59995,2470.343,2021-8-07T16:01:21Z
2021-08-07T14:03:06Z,42.805,6.029,13.2990,4.59996,2470.343,2021-8-07T16:04:24Z
2021-08-07T14:06:09Z,42.805,6.029,13.2986,4.59996,2470.32,2021-8-07T16:07:27Z
2021-08-07T14:09:12Z,42.805,6.029,13.2989,4.59996,2470.32,2021-8-07T16:10:30Z
2021-08-07T14:12:15Z,42.805,6.029,13.2989,4.59996,2470.357,2021-8-07T16:13:33Z
2021-08-07T14:15:19Z,42.805,6.029,13.2990,4.59996,2470.343,2021-8-07T16:16:36Z
2021-08-07T14:18:22Z,42.805,6.029,13.2983,4.59996,2470.297,2021-8-07T16:19:40Z
2021-08-07T14:21:25Z,42.805,6.029,13.2990,4.59996,2470.357,2021-8-07T16:22:43Z
2021-08-07T14:24:28Z,42.805,6.029,13.2988,4.59996,2470.334,2021-8-07T16:25:46Z
2021-08-07T14:27:31Z,42.805,6.029,13.2988,4.59996,2470.343,2021-8-07T16:28:49Z
2021-08-07T14:30:34Z,42.805,6.029,13.2991,4.59996,2470.343,2021-8-07T16:31:52Z
2021-08-07T14:33:37Z,42.805,6.029,13.2986,4.59996,2470.39,2021-8-07T16:34:55Z
2021-08-07T14:36:40Z,42.805,6.029,13.2989,4.59996,2470.404,2021-8-07T16:37:58Z
2021-08-07T14:39:44Z,42.805,6.029,13.2987,4.59998,2470.38,2021-8-07T16:41:01Z
2021-08-07T14:42:47Z,42.805,6.029,13.2991,4.59997,2470.366,2021-8-07T16:44:05Z
2021-08-07T14:45:50Z,42.805,6.029,13.2988,4.59996,2470.366,2021-8-07T16:47:08Z
2021-08-07T14:48:53Z,42.805,6.029,13.2990,4.59996,2470.366,2021-8-07T16:50:11Z
2021-08-07T14:51:56Z,42.805,6.029,13.2986,4.59996,2470.38,2021-8-07T16:53:14Z
2021-08-07T14:54:59Z,42.805,6.029,13.2986,4.59996,2470.343,2021-8-07T16:56:17Z
2021-08-07T14:58:02Z,42.805,6.029,13.2988,4.59995,2470.39,2021-8-07T16:59:20Z
2021-08-07T15:01:05Z,42.805,6.029,13.2985,4.59996,2470.38,2021-8-07T17:02:23Z
2021-08-07T15:04:09Z,42.805,6.029,13.2986,4.60001,2470.366,2021-8-07T17:05:26Z
2021-08-07T15:07:12Z,42.805,6.029,13.2992,4.59998,2470.39,2021-8-07T17:08:30Z
2021-08-07T15:10:15Z,42.805,6.029,13.2985,4.59996,2470.404,2021-8-07T17:11:33Z
2021-08-07T15:13:18Z,42.805,6.029,13.2990,4.59999,2470.38,2021-8-07T17:14:36Z